Time,TemperatureF,DewpointF,PressureIn,WindDirection,WindDirectionDegrees,WindSpeedMPH,WindSpeedGustMPH,Humidity,HourlyPrecipIn,Conditions,Clouds,dailyrainin,SolarRadiationWatts/m^2,SoftwareType,DateUTC
2013-05-31 00:00:00,50.4,44.4,29.47,WNW,286,0.0,0.0,80,0.00,OVC,OVC,0.00,0.0,WeatherDisplay:10.37,2013-05-30 22:00:00,
2013-05-31 00:10:00,50.4,44.4,29.47,West,265,0.0,0.0,80,0.00,-RA,OVC,0.00,0.0,WeatherDisplay:10.37,2013-05-30 22:10:00,
2013-05-31 00:20:00,50.2,44.2,29.47,SW,226,0.0,0.0,80,0.00,-RA,OVC,0.00,0.0,WeatherDisplay:10.37,2013-05-30 22:20:00,
2013-05-31 00:30:00,50.4,44.4,29.47,WSW,253,0.0,0.0,80,0.00,-RA,OVC,0.00,0.0,WeatherDisplay:10.37,2013-05-30 22:30:00,
2013-05-31 00:40:00,50.2,44.2,29.47,WSW,238,0.0,0.0,80,0.00,-RA,OVC,0.00,0.0,WeatherDisplay:10.37,2013-05-30 22:40:00,
2013-05-31 00:50:00,50.4,44.4,29.47,WSW,241,0.0,0.0,80,0.00,-RA,OVC,0.00,0.0,WeatherDisplay:10.37,2013-05-30 22:50:00,
2013-05-31 01:00:00,50.4,44.4,29.47,SW,223,0.0,0.0,80,0.00,-RA,OVC,0.00,0.0,WeatherDisplay:10.37,2013-05-30 23:00:00,
2013-05-31 01:10:00,50.4,44.4,29.47,SSW,203,0.0,0.0,80,0.00,OVC,OVC,0.00,0.0,WeatherDisplay:10.37,2013-05-30 23:10:00,
2013-05-31 01:20:00,50.4,44.4,29.47,SW,226,0.0,0.0,80,0.00,OVC,OVC,0.00,0.0,WeatherDisplay:10.37,2013-05-30 23:20:00,
2013-05-31 01:30:00,50.4,44.4,29.47,WSW,242,0.0,0.0,80,0.00,OVC,OVC,0.00,0.0,WeatherDisplay:10.37,2013-05-30 23:30:00,
2013-05-31 01:40:00,50.4,44.4,29.47,WSW,239,0.0,0.0,80,0.00,OVC,OVC,0.00,0.0,WeatherDisplay:10.37,2013-05-30 23:40:00,
2013-05-31 01:50:00,50.4,44.4,29.47,West,262,0.0,0.0,80,0.00,OVC,OVC,0.00,0.0,WeatherDisplay:10.37,2013-05-30 23:50:00,
2013-05-31 02:00:00,50.4,44.4,29.47,WSW,240,0.0,0.0,80,0.00,OVC,OVC,0.00,0.0,WeatherDisplay:10.37,2013-05-31 00:00:00,
2013-05-31 02:10:00,50.4,44.4,29.47,WSW,243,0.0,0.0,80,0.00,OVC,OVC,0.00,0.0,WeatherDisplay:10.37,2013-05-31 00:10:00,
2013-05-31 02:20:00,50.4,44.4,29.47,SW,215,0.0,0.0,80,0.00,OVC,OVC,0.00,0.0,WeatherDisplay:10.37,2013-05-31 00:20:00,
2013-05-31 02:30:00,50.2,44.2,29.47,SW,231,0.0,0.0,80,0.00,OVC,OVC,0.00,0.0,WeatherDisplay:10.37,2013-05-31 00:30:00,
2013-05-31 02:40:00,50.2,44.2,29.47,SW,232,0.0,0.0,80,0.00,OVC,OVC,0.00,0.0,WeatherDisplay:10.37,2013-05-31 00:40:00,
2013-05-31 02:50:00,50.2,44.2,29.47,WSW,247,0.0,0.0,80,0.00,OVC,OVC,0.00,0.0,WeatherDisplay:10.37,2013-05-31 00:50:00,
2013-05-31 03:00:00,50.2,44.2,29.47,SSW,211,0.0,0.0,80,0.00,OVC,OVC,0.00,0.0,WeatherDisplay:10.37,2013-05-31 01:00:00,
2013-05-31 03:10:00,50.0,44.1,29.47,South,174,0.0,0.0,80,0.00,OVC,OVC,0.00,0.0,WeatherDisplay:10.37,2013-05-31 01:10:00,
2013-05-31 04:00:00,50.0,44.1,29.44,ENE,68,0.0,0.0,80,0.00,OVC,OVC,0.00,0.0,WeatherDisplay:10.37,2013-05-31 02:00:00,
2013-05-31 04:10:00,50.0,44.1,29.44,NW,317,0.0,0.0,80,0.00,,OVC,0.00,0.0,WeatherDisplay:10.37,2013-05-31 02:10:00,
2013-05-31 04:20:00,50.0,44.1,29.44,West,281,0.0,0.0,80,0.00,,OVC,0.00,0.0,WeatherDisplay:10.37,2013-05-31 02:20:00,
2013-05-31 04:30:00,50.0,44.1,29.44,West,278,0.0,0.0,80,0.00,OVC,OVC,0.00,0.0,WeatherDisplay:10.37,2013-05-31 02:30:00,
2013-05-31 04:40:00,50.0,44.1,29.44,West,280,0.0,0.0,80,0.00,OVC,OVC,0.00,0.0,WeatherDisplay:10.37,2013-05-31 02:40:00,
2013-05-31 04:50:00,50.2,44.2,29.44,WSW,257,0.0,0.0,80,0.00,OVC,OVC,0.00,0.0,WeatherDisplay:10.37,2013-05-31 02:50:00,
2013-05-31 05:00:00,50.2,44.2,29.44,West,265,0.0,0.0,80,0.00,OVC,OVC,0.00,0.0,WeatherDisplay:10.37,2013-05-31 03:00:00,
2013-05-31 05:10:00,50.2,44.2,29.47,NNW,345,0.0,0.0,80,0.00,OVC,OVC,0.00,0.0,WeatherDisplay:10.37,2013-05-31 03:10:00,
2013-05-31 05:20:00,50.4,44.4,29.44,NNE,23,0.0,0.0,80,0.00,OVC,OVC,0.00,0.0,WeatherDisplay:10.37,2013-05-31 03:20:00,
2013-05-31 05:30:00,50.4,44.4,29.44,North,354,0.0,0.0,80,0.00,OVC,OVC,0.00,0.0,WeatherDisplay:10.37,2013-05-31 03:30:00,
2013-05-31 05:40:00,50.5,44.9,29.47,North,1,0.0,0.0,81,0.00,OVC,OVC,0.00,0.0,WeatherDisplay:10.37,2013-05-31 03:40:00,
2013-05-31 05:50:00,50.5,44.6,29.47,North,2,0.0,0.0,80,0.00,OVC,OVC,0.00,0.0,WeatherDisplay:10.37,2013-05-31 03:50:00,
2013-05-31 06:00:00,50.5,44.6,29.47,North,4,0.0,0.0,80,0.00,OVC,OVC,0.00,0.0,WeatherDisplay:10.37,2013-05-31 04:00:00,
2013-05-31 06:10:00,50.7,44.8,29.47,ENE,61,1.0,1.0,80,0.00,OVC,OVC,0.00,0.0,WeatherDisplay:10.37,2013-05-31 04:10:00,
2013-05-31 06:20:00,50.7,44.8,29.47,ESE,102,0.0,3.0,80,0.00,OVC,OVC,0.00,0.0,WeatherDisplay:10.37,2013-05-31 04:20:00,
2013-05-31 06:30:00,50.7,44.8,29.47,North,354,0.0,0.0,80,0.00,OVC,OVC,0.00,0.0,WeatherDisplay:10.37,2013-05-31 04:30:00,
2013-05-31 06:40:00,51.1,45.1,29.47,ESE,108,0.0,0.0,80,0.00,OVC,OVC,0.00,0.0,WeatherDisplay:10.37,2013-05-31 04:40:00,
2013-05-31 06:50:00,51.3,45.3,29.47,SSE,165,2.0,2.0,80,0.00,OVC,OVC,0.00,0.0,WeatherDisplay:10.37,2013-05-31 04:50:00,
2013-05-31 07:00:00,51.1,45.1,29.47,SSE,156,0.0,2.0,80,0.00,OVC,OVC,0.00,0.0,WeatherDisplay:10.37,2013-05-31 05:00:00,
2013-05-31 07:10:00,51.4,45.5,29.47,SE,131,0.0,0.0,80,0.00,OVC,OVC,0.00,0.0,WeatherDisplay:10.37,2013-05-31 05:10:00,
2013-05-31 07:20:00,51.8,45.8,29.47,East,86,2.0,2.0,80,0.00,OVC,OVC,0.00,0.0,WeatherDisplay:10.37,2013-05-31 05:20:00,
2013-05-31 07:30:00,52.0,46.0,29.47,East,84,2.0,2.0,80,0.00,OVC,OVC,0.00,0.0,WeatherDisplay:10.37,2013-05-31 05:30:00,
2013-05-31 07:40:00,52.0,46.0,29.47,ENE,59,0.0,2.0,80,0.00,OVC,OVC,0.00,0.0,WeatherDisplay:10.37,2013-05-31 05:40:00,
2013-05-31 07:50:00,51.6,45.7,29.47,East,91,0.0,2.0,80,0.00,OVC,OVC,0.00,0.0,WeatherDisplay:10.37,2013-05-31 05:50:00,
2013-05-31 08:00:00,51.6,45.7,29.47,SE,138,0.0,0.0,80,0.00,OVC,OVC,0.00,0.0,WeatherDisplay:10.37,2013-05-31 06:00:00,
2013-05-31 08:10:00,51.8,45.8,29.47,SSE,155,0.0,0.0,80,0.00,OVC,OVC,0.00,0.0,WeatherDisplay:10.37,2013-05-31 06:10:00,
2013-05-31 08:20:00,51.4,45.5,29.47,ESE,116,2.0,3.0,80,0.00,OVC,OVC,0.00,0.0,WeatherDisplay:10.37,2013-05-31 06:20:00,
2013-05-31 08:30:00,51.8,45.8,29.47,East,89,0.0,2.0,80,0.00,OVC,OVC,0.00,0.0,WeatherDisplay:10.37,2013-05-31 06:30:00,
2013-05-31 08:40:00,52.0,46.0,29.47,East,86,0.0,0.0,80,0.00,OVC,OVC,0.00,0.0,WeatherDisplay:10.37,2013-05-31 06:40:00,
2013-05-31 08:50:00,52.2,46.2,29.47,NNE,17,0.0,0.0,80,0.00,OVC,OVC,0.00,0.0,WeatherDisplay:10.37,2013-05-31 06:50:00,
2013-05-31 09:00:00,52.0,46.0,29.47,East,90,0.0,0.0,80,0.00,OVC,OVC,0.00,0.0,WeatherDisplay:10.37,2013-05-31 07:00:00,
2013-05-31 09:10:00,52.2,46.2,29.47,North,359,0.0,0.0,80,0.00,-DZ,OVC,0.00,0.0,WeatherDisplay:10.37,2013-05-31 07:10:00,
2013-05-31 09:20:00,51.8,45.8,29.47,NW,326,0.0,0.0,80,0.00,-DZ,OVC,0.00,0.0,WeatherDisplay:10.37,2013-05-31 07:20:00,
2013-05-31 09:30:00,52.0,46.0,29.47,NNE,25,0.0,0.0,80,0.00,-DZ,OVC,0.00,0.0,WeatherDisplay:10.37,2013-05-31 07:30:00,
2013-05-31 09:40:00,52.0,46.0,29.47,East,81,0.0,0.0,80,0.00,-DZ,OVC,0.00,0.0,WeatherDisplay:10.37,2013-05-31 07:40:00,
2013-05-31 09:50:00,52.2,46.2,29.47,NNW,337,0.0,0.0,80,0.00,-DZ,OVC,0.00,0.0,WeatherDisplay:10.37,2013-05-31 07:50:00,
2013-05-31 10:00:00,52.2,46.2,29.47,NNW,340,0.0,0.0,80,0.01,-DZ,OVC,0.01,0.0,WeatherDisplay:10.37,2013-05-31 08:00:00,
2013-05-31 10:10:00,52.0,46.0,29.47,NNW,335,0.0,0.0,80,0.02,-DZ,OVC,0.06,0.0,WeatherDisplay:10.37,2013-05-31 08:10:00,
2013-05-31 10:20:00,51.8,45.8,29.47,NE,40,1.0,1.0,80,0.01,-DZ,OVC,0.09,0.0,WeatherDisplay:10.37,2013-05-31 08:20:00,
2013-05-31 10:30:00,51.6,45.7,29.47,East,80,0.0,1.0,80,0.00,-DZ,OVC,0.09,0.0,WeatherDisplay:10.37,2013-05-31 08:30:00,
2013-05-31 10:40:00,51.6,45.7,29.50,NE,50,0.0,0.0,80,0.00,-DZ,OVC,0.10,0.0,WeatherDisplay:10.37,2013-05-31 08:40:00,
2013-05-31 10:50:00,51.6,45.7,29.47,ENE,62,1.0,1.0,80,0.01,-DZ,OVC,0.13,0.0,WeatherDisplay:10.37,2013-05-31 08:50:00,
2013-05-31 11:00:00,51.1,45.1,29.47,ENE,75,2.0,2.0,80,0.01,-DZ,OVC,0.14,0.0,WeatherDisplay:10.37,2013-05-31 09:00:00,
2013-05-31 11:10:00,51.1,45.1,29.50,ENE,66,0.0,1.0,80,0.01,RA,OVC,0.16,0.0,WeatherDisplay:10.37,2013-05-31 09:10:00,
2013-05-31 11:20:00,51.1,45.1,29.50,ESE,104,0.0,0.0,80,0.01,RA,OVC,0.19,0.0,WeatherDisplay:10.37,2013-05-31 09:20:00,
2013-05-31 11:30:00,51.3,45.3,29.50,SE,135,0.0,0.0,80,0.00,BKN,OVC,0.19,0.0,WeatherDisplay:10.37,2013-05-31 09:30:00,
2013-05-31 11:40:00,51.1,45.1,29.50,SSE,148,0.0,0.0,80,0.01,RA,OVC,0.21,0.0,WeatherDisplay:10.37,2013-05-31 09:40:00,
2013-05-31 11:50:00,51.6,45.7,29.50,SW,235,0.0,0.0,80,0.01,RA,OVC,0.22,0.0,WeatherDisplay:10.37,2013-05-31 09:50:00,
2013-05-31 12:00:00,51.8,45.8,29.50,SW,229,2.0,2.0,80,0.00,BKN,OVC,0.22,0.0,WeatherDisplay:10.37,2013-05-31 10:00:00,
2013-05-31 12:10:00,52.5,46.5,29.50,SW,226,2.0,3.0,80,0.00,BKN,OVC,0.22,0.0,WeatherDisplay:10.37,2013-05-31 10:10:00,
2013-05-31 12:20:00,53.1,47.1,29.50,SW,235,5.0,5.0,80,0.00,BKN,OVC,0.22,0.0,WeatherDisplay:10.37,2013-05-31 10:20:00,
2013-05-31 12:30:00,53.2,47.2,29.50,WSW,240,3.0,5.0,80,0.01,RA,OVC,0.23,0.0,WeatherDisplay:10.37,2013-05-31 10:30:00,
2013-05-31 12:40:00,54.3,48.3,29.53,WSW,249,0.0,3.0,80,0.00,BKN,OVC,0.23,0.0,WeatherDisplay:10.37,2013-05-31 10:40:00,
2013-05-31 12:50:00,54.3,48.3,29.53,West,265,2.0,3.0,80,0.00,BKN,OVC,0.23,0.0,WeatherDisplay:10.37,2013-05-31 10:50:00,
2013-05-31 13:00:00,54.9,48.5,29.53,West,265,0.0,2.0,79,0.00,BKN,OVC,0.23,0.0,WeatherDisplay:10.37,2013-05-31 11:00:00,
2013-05-31 13:10:00,57.9,51.8,29.53,West,274,0.0,0.0,80,0.00,-RA,OVC,0.23,0.0,WeatherDisplay:10.37,2013-05-31 11:10:00,
2013-05-31 13:20:00,55.9,49.2,29.53,WNW,289,5.0,5.0,78,0.00,-RA,OVC,0.23,0.0,WeatherDisplay:10.37,2013-05-31 11:20:00,
2013-05-31 13:30:00,55.8,49.0,29.53,WNW,290,5.0,5.0,78,0.00,-RA,OVC,0.23,0.0,WeatherDisplay:10.37,2013-05-31 11:30:00,
2013-05-31 13:40:00,58.5,50.9,29.53,WNW,290,5.0,5.0,76,0.00,-RA,OVC,0.23,0.0,WeatherDisplay:10.37,2013-05-31 11:40:00,
2013-05-31 13:50:00,58.3,50.0,29.53,WNW,295,3.0,5.0,74,0.00,-RA,OVC,0.23,0.0,WeatherDisplay:10.37,2013-05-31 11:50:00,
2013-05-31 14:00:00,58.6,49.3,29.53,WNW,295,5.0,5.0,71,0.00,-RA,OVC,0.23,0.0,WeatherDisplay:10.37,2013-05-31 12:00:00,
2013-05-31 14:10:00,58.6,49.3,29.53,SE,146,6.0,6.0,71,0.00,-RA,OVC,0.23,0.0,WeatherDisplay:10.37,2013-05-31 12:10:00,
2013-05-31 14:20:00,55.0,45.8,29.53,ESE,105,3.0,6.0,71,0.00,-RA,OVC,0.23,0.0,WeatherDisplay:10.37,2013-05-31 12:20:00,
2013-05-31 14:30:00,55.2,46.3,29.53,ESE,105,3.0,3.0,72,0.00,-RA,OVC,0.23,0.0,WeatherDisplay:10.37,2013-05-31 12:30:00,
2013-05-31 14:40:00,55.6,46.7,29.56,SE,143,3.0,4.0,72,0.00,-RA,OVC,0.23,0.0,WeatherDisplay:10.37,2013-05-31 12:40:00,
2013-05-31 14:50:00,54.3,45.1,29.56,SSE,157,6.0,6.0,71,0.00,-RA,OVC,0.23,0.0,WeatherDisplay:10.37,2013-05-31 12:50:00,
2013-05-31 15:00:00,53.6,44.4,29.56,SSE,163,5.0,6.0,71,0.00,-RA,OVC,0.23,0.0,WeatherDisplay:10.37,2013-05-31 13:00:00,
2013-05-31 15:10:00,56.3,47.0,29.56,SSE,150,5.0,5.0,71,0.00,BKN,OVC,0.23,0.0,WeatherDisplay:10.37,2013-05-31 13:10:00,
2013-05-31 15:20:00,59.0,48.4,29.56,SE,145,6.0,7.0,68,0.00,BKN,OVC,0.23,0.0,WeatherDisplay:10.37,2013-05-31 13:20:00,
2013-05-31 15:30:00,58.8,46.7,29.56,SE,145,5.0,6.0,64,0.00,BKN,OVC,0.23,0.0,WeatherDisplay:10.37,2013-05-31 13:30:00,
2013-05-31 15:40:00,57.7,46.0,29.56,SE,131,7.0,8.0,65,0.00,BKN,OVC,0.23,0.0,WeatherDisplay:10.37,2013-05-31 13:40:00,
2013-05-31 15:50:00,57.0,45.4,29.56,SSE,152,6.0,7.0,65,0.00,BKN,OVC,0.23,0.0,WeatherDisplay:10.37,2013-05-31 13:50:00,
2013-05-31 16:00:00,58.8,47.1,29.56,SSE,167,6.0,6.0,65,0.00,BKN,OVC,0.23,0.0,WeatherDisplay:10.37,2013-05-31 14:00:00,
2013-05-31 16:10:00,59.9,47.3,29.56,SSE,168,3.0,9.0,63,0.00,BKN,OVC,0.23,0.0,WeatherDisplay:10.37,2013-05-31 14:10:00,
2013-05-31 16:20:00,57.0,45.0,29.56,ESE,105,8.0,8.0,64,0.00,BKN,OVC,0.23,0.0,WeatherDisplay:10.37,2013-05-31 14:20:00,
2013-05-31 16:30:00,56.5,44.9,29.56,ESE,108,3.0,8.0,65,0.00,BKN,OVC,0.23,0.0,WeatherDisplay:10.37,2013-05-31 14:30:00,
2013-05-31 16:40:00,56.1,45.3,29.56,South,175,1.0,3.0,67,0.00,BKN,OVC,0.23,0.0,WeatherDisplay:10.37,2013-05-31 14:40:00,
2013-05-31 16:50:00,62.1,49.7,29.56,ENE,70,6.0,6.0,64,0.00,BKN,OVC,0.23,0.0,WeatherDisplay:10.37,2013-05-31 14:50:00,
2013-05-31 17:00:00,61.7,48.1,29.56,ENE,78,5.0,6.0,61,0.00,BKN,OVC,0.23,0.0,WeatherDisplay:10.37,2013-05-31 15:00:00,
2013-05-31 17:10:00,60.6,47.1,29.59,ESE,108,3.0,9.0,61,0.00,BKN,OVC,0.23,0.0,WeatherDisplay:10.37,2013-05-31 15:10:00,
2013-05-31 17:20:00,60.1,45.7,29.59,ESE,111,3.0,5.0,59,0.00,BKN,OVC,0.23,0.0,WeatherDisplay:10.37,2013-05-31 15:20:00,
2013-05-31 17:30:00,59.4,45.5,29.59,SE,125,2.0,3.0,60,0.00,BKN,OVC,0.23,0.0,WeatherDisplay:10.37,2013-05-31 15:30:00,
2013-05-31 17:40:00,60.6,47.1,29.59,SSE,154,0.0,5.0,61,0.00,BKN,OVC,0.23,0.0,WeatherDisplay:10.37,2013-05-31 15:40:00,
2013-05-31 17:50:00,62.8,47.3,29.59,SSE,156,3.0,3.0,57,0.00,BKN,OVC,0.23,0.0,WeatherDisplay:10.37,2013-05-31 15:50:00,
2013-05-31 18:00:00,60.6,46.2,29.59,SE,142,5.0,5.0,59,0.00,BKN,OVC,0.23,0.0,WeatherDisplay:10.37,2013-05-31 16:00:00,
2013-05-31 18:10:00,62.4,47.0,29.59,SSE,168,3.0,5.0,57,0.00,FEW,OVC,0.23,0.0,WeatherDisplay:10.37,2013-05-31 16:10:00,
2013-05-31 18:20:00,61.2,46.3,29.59,East,100,3.0,4.0,58,0.00,FEW,OVC,0.23,0.0,WeatherDisplay:10.37,2013-05-31 16:20:00,
2013-05-31 18:30:00,58.8,45.0,29.59,ENE,62,5.0,5.0,60,0.00,FEW,OVC,0.23,0.0,WeatherDisplay:10.37,2013-05-31 16:30:00,
2013-05-31 18:40:00,56.5,44.4,29.59,NE,40,0.0,5.0,64,0.00,FEW,OVC,0.23,0.0,WeatherDisplay:10.37,2013-05-31 16:40:00,
2013-05-31 18:50:00,56.8,45.6,29.62,NE,45,0.0,1.0,66,0.00,FEW,OVC,0.23,0.0,WeatherDisplay:10.37,2013-05-31 16:50:00,
2013-05-31 19:00:00,59.0,46.4,29.62,NE,49,3.0,3.0,63,0.00,FEW,OVC,0.23,0.0,WeatherDisplay:10.37,2013-05-31 17:00:00,
2013-05-31 19:10:00,60.8,46.8,29.62,ENE,78,3.0,3.0,60,0.00,BKN,OVC,0.23,0.0,WeatherDisplay:10.37,2013-05-31 17:10:00,
2013-05-31 19:20:00,59.0,45.1,29.62,East,88,2.0,4.0,60,0.00,BKN,OVC,0.23,0.0,WeatherDisplay:10.37,2013-05-31 17:20:00,
2013-05-31 19:30:00,57.9,44.5,29.62,East,86,3.0,3.0,61,0.00,BKN,OVC,0.23,0.0,WeatherDisplay:10.37,2013-05-31 17:30:00,
2013-05-31 19:40:00,56.1,43.3,29.62,East,80,0.0,3.0,62,0.00,BKN,OVC,0.23,0.0,WeatherDisplay:10.37,2013-05-31 17:40:00,
2013-05-31 19:50:00,55.2,42.8,29.62,East,86,5.0,5.0,63,0.00,BKN,OVC,0.23,0.0,WeatherDisplay:10.37,2013-05-31 17:50:00,
2013-05-31 20:00:00,55.0,43.1,29.62,East,82,0.0,5.0,64,0.00,BKN,OVC,0.23,0.0,WeatherDisplay:10.37,2013-05-31 18:00:00,
2013-05-31 20:10:00,54.0,42.5,29.62,ENE,66,0.0,2.0,65,0.00,SCT,OVC,0.23,0.0,WeatherDisplay:10.37,2013-05-31 18:10:00,
2013-05-31 20:20:00,53.2,42.6,29.65,NNE,26,2.0,3.0,67,0.00,SCT,OVC,0.23,0.0,WeatherDisplay:10.37,2013-05-31 18:20:00,
2013-05-31 20:30:00,52.9,42.2,29.65,North,11,0.0,2.0,67,0.00,SCT,OVC,0.23,0.0,WeatherDisplay:10.37,2013-05-31 18:30:00,
2013-05-31 20:40:00,52.3,42.5,29.65,NE,56,0.0,0.0,69,0.00,SCT,OVC,0.23,0.0,WeatherDisplay:10.37,2013-05-31 18:40:00,
2013-05-31 20:50:00,51.8,42.7,29.65,East,81,0.0,0.0,71,0.00,SCT,OVC,0.23,0.0,WeatherDisplay:10.37,2013-05-31 18:50:00,
2013-05-31 21:00:00,51.4,42.3,29.65,ESE,112,0.0,0.0,71,0.00,SCT,OVC,0.23,0.0,WeatherDisplay:10.37,2013-05-31 19:00:00,
2013-05-31 21:10:00,50.4,42.0,29.65,East,99,0.0,0.0,73,0.00,SCT,OVC,0.23,0.0,WeatherDisplay:10.37,2013-05-31 19:10:00,
2013-05-31 21:20:00,49.6,41.3,29.65,ENE,59,0.0,0.0,73,0.00,SCT,OVC,0.23,0.0,WeatherDisplay:10.37,2013-05-31 19:20:00,
2013-05-31 21:30:00,49.3,41.3,29.65,NNE,25,0.0,0.0,74,0.00,SCT,OVC,0.23,0.0,WeatherDisplay:10.37,2013-05-31 19:30:00,
2013-05-31 21:40:00,48.4,40.5,29.65,ESE,108,0.0,0.0,74,0.00,SCT,OVC,0.23,0.0,WeatherDisplay:10.37,2013-05-31 19:40:00,
2013-05-31 21:50:00,46.8,39.3,29.65,NW,309,0.0,0.0,75,0.00,SCT,OVC,0.23,0.0,WeatherDisplay:10.37,2013-05-31 19:50:00,
2013-05-31 22:00:00,46.6,39.1,29.65,NNW,338,0.0,0.0,75,0.00,SCT,OVC,0.23,0.0,WeatherDisplay:10.37,2013-05-31 20:00:00,
2013-05-31 22:10:00,45.9,38.7,29.68,SE,143,0.0,0.0,76,0.00,FEW,OVC,0.23,0.0,WeatherDisplay:10.37,2013-05-31 20:10:00,
2013-05-31 22:20:00,44.4,37.3,29.68,SW,235,0.0,0.0,76,0.00,FEW,OVC,0.23,0.0,WeatherDisplay:10.37,2013-05-31 20:20:00,
2013-05-31 22:30:00,43.5,36.5,29.68,SW,235,0.0,0.0,76,0.00,FEW,OVC,0.23,0.0,WeatherDisplay:10.37,2013-05-31 20:30:00,
2013-05-31 22:40:00,42.1,35.4,29.68,SW,215,0.0,0.0,77,0.00,FEW,OVC,0.23,0.0,WeatherDisplay:10.37,2013-05-31 20:40:00,
2013-05-31 22:50:00,41.4,34.4,29.68,SSW,198,0.0,0.0,76,0.00,FEW,OVC,0.23,0.0,WeatherDisplay:10.37,2013-05-31 20:50:00,
2013-05-31 23:00:00,40.8,34.2,29.68,SW,225,0.0,0.0,77,0.00,FEW,OVC,0.23,0.0,WeatherDisplay:10.37,2013-05-31 21:00:00,
2013-05-31 23:10:00,40.3,33.6,29.68,SW,216,0.0,0.0,77,0.00,CLR,OVC,0.23,0.0,WeatherDisplay:10.37,2013-05-31 21:10:00,
2013-05-31 23:20:00,39.6,32.9,29.68,SW,220,0.0,0.0,77,0.00,CLR,OVC,0.23,0.0,WeatherDisplay:10.37,2013-05-31 21:20:00,
2013-05-31 23:30:00,39.2,32.6,29.68,SW,214,0.0,0.0,77,0.00,CLR,OVC,0.23,0.0,WeatherDisplay:10.37,2013-05-31 21:30:00,
2013-05-31 23:40:00,38.8,32.2,29.71,SSW,210,0.0,0.0,77,0.00,CLR,OVC,0.23,0.0,WeatherDisplay:10.37,2013-05-31 21:40:00,
2013-05-31 23:50:00,38.8,32.2,29.68,SSW,205,0.0,0.0,77,0.00,CLR,OVC,0.23,0.0,WeatherDisplay:10.37,2013-05-31 21:50:00,